Location: *
(41.7492°S, 135.4150°W)
Time: 19:52:03
(UTC+00:00)

Oscar 19 - Pass Details

Date: 02 July 2022
Orbit: 773 x 790 km, 98.8° (Epoch: 09 August)

Event Time Altitude Azimuth Distance (km) Brightness Sun altitude
Rises 02:21:59 0° 187° (S) 3,326 13.7 -7.5°
Reaches altitude 10° 02:25:55 10° 216° (SW) 2,387 13.3 -8.2°
Maximum altitude 02:27:47 12° 237° (WSW) 2,247 13.5 -8.5°
Drops below altitude 10° 02:29:40 10° 258° (WSW) 2,378 14.1 -8.8°
Sets 02:33:34 0° 288° (WNW) 3,295 16.2 -9.5°
